User: anonymous
Location: Unspecified
(0.0000°N, 0.0000°E)
Time: 05:12:25
(UTC+02:00)
Language:

Gbstr 26 Del rocket - Orbit

View from above orbital plane
View from above orbital plane
View from above satellite
View from above satellite

Ground track
Ground track

The orbit data is extracted from the following two-line orbital elements,

1 25876U 99041E   14294.18004957  .00003542  00000-0  65236-3 0  5024
2 25876 051.7628 180.8098 0540324 083.2131 080.6921 14.02367211778396
Epoch (UTC): 21 October 2014 04:19:16
Eccentricity: 0.0540324
inclination: 51.7628°
perigee height: 493 km
apogee height: 1278 km
right ascension of ascending node: 180.8098°
argument of perigee: 83.2131°
revolutions per day: 14.02367211
mean anomaly at epoch: 80.6921°
orbit number at epoch: 77839

The dashed part of the orbit path shows where the satellite is in the earth's shadow,  

DLR